Terminal Aerodrome Forecast
Issued by NWS

Home | Current Version | Previous Version | Text Only | Print | Product List | Glossary On
Versions: 1 2 3 4 5 6 7 8 9 10 11 12 13 14 15 16 17
984
FTUS46 KHNX 210520
TAFBFL
TAF
KBFL 210520Z 2106/2206 36008KT P6SM SKC
     FM211000 32012G18KT P6SM FEW150
     FM220400 33008KT P6SM BKN100=

USA.gov is the U.S. government's official web portal to all federal, state and local government web resources and services.